Albany, NY

10:58 PM EDT on July 25, 2017 (GMT -0400)
Albany International

Weather History for KALB - July, 2014

Change the Weather History Date:

Monday, July 21, 2014

  Actual Average Record
Temperature  
Mean Temperature 74 °F 72 °F  
Max Temperature 84 °F 83 °F 101 °F (1930)
Min Temperature 63 °F 62 °F 45 °F (1974)
Degree Days  
Heating Degree Days 0 0  
Month to date heating degree days 0 0  
Since 1 June heating degree days 12 52  
Since 1 July heating degree days 0 0  
Cooling Degree Days 9 7  
Month to date cooling degree days 168 144  
Year to date cooling degree days 351 292  
Since 1 June cooling degree days 316 262  
Growing Degree Days 24 (Base 50)    
Moisture  
Dew Point 60 °F    
Average Humidity 60    
Maximum Humidity 73    
Minimum Humidity 46    
Precipitation  
Precipitation 0.00 in 0.13 in 1.27 in (1931)
Month to date precipitation 3.93 2.79  
Year to date precipitation 22.26 21.36  
Sea Level Pressure  
Sea Level Pressure 30.15 in    
Wind  
Wind Speed 5 mph (South)    
Max Wind Speed 12 mph    
Max Gust Speed 13 mph    
Visibility 10 miles    
Events      
T = Trace of Precipitation, MM = Missing Value Source: NWS Daily Summary

Daily Weather History Graph

Daily Weather History Graph

Search for Another Location

Airport or City:

Trip Planner

Search our weather history database for the weather conditions in past years. The results will help you decide how hot, cold, wet, or windy it might be!

Date:

Astronomy

Jul. 21, 2014 Rise Set
Actual Time 5:35 AM EDT 8:26 PM EDT
Civil Twilight 5:02 AM EDT 9:00 PM EDT
Nautical Twilight 4:20 AM EDT 9:42 PM EDT
Astronomical Twilight 3:31 AM EDT 10:30 PM EDT
Moon 1:26 AM EDT (7/21) 4:05 PM EDT (7/21)
Length of Visible Light 15h 57m
Length of Day
14h 51m
Waning Crescent, 24% of the Moon is Illuminated
Jul 21
Waning Crescent
Jul 26
New
Aug 3
First Quarter
Aug 10
Full
Aug 17
Last Quarter

Hourly Weather History & Observations

Time (EDT) Temp. Heat Index Dew Point Humidity Pressure Visibility Wind Dir Wind Speed Gust Speed Precip Events Conditions
12:51 AM 71.1 °F - 57.9 °F 63% 30.14 in 10.0 mi South 3.5 mph - N/A   Overcast
1:51 AM 70.0 °F - 57.9 °F 65% 30.14 in 10.0 mi SSE 4.6 mph - N/A   Mostly Cloudy
2:51 AM 69.1 °F - 55.0 °F 61% 30.13 in 10.0 mi SSE 3.5 mph - N/A   Scattered Clouds
3:51 AM 66.0 °F - 55.9 °F 70% 30.14 in 10.0 mi Calm Calm - N/A   Partly Cloudy
4:51 AM 64.0 °F - 55.9 °F 75% 30.16 in 10.0 mi Calm Calm - N/A   Mostly Cloudy
5:51 AM 64.9 °F - 55.0 °F 70% 30.18 in 10.0 mi SSE 3.5 mph - N/A   Scattered Clouds
6:51 AM 64.9 °F - 55.9 °F 73% 30.18 in 10.0 mi SE 3.5 mph - N/A   Mostly Cloudy
7:51 AM 68.0 °F - 57.0 °F 68% 30.20 in 10.0 mi SSE 4.6 mph - N/A   Mostly Cloudy
8:51 AM 68.0 °F - 57.9 °F 70% 30.21 in 10.0 mi SSE 6.9 mph - N/A   Mostly Cloudy
9:51 AM 70.0 °F - 60.1 °F 71% 30.20 in 10.0 mi South 5.8 mph - N/A   Mostly Cloudy
10:51 AM 73.9 °F - 61.0 °F 64% 30.19 in 10.0 mi South 8.1 mph - N/A   Scattered Clouds
11:51 AM 78.1 °F - 62.1 °F 58% 30.18 in 10.0 mi South 5.8 mph - N/A   Partly Cloudy
12:51 PM 81.0 °F 81.9 °F 62.1 °F 52% 30.16 in 10.0 mi South 5.8 mph - N/A   Partly Cloudy
1:51 PM 81.0 °F 81.7 °F 61.0 °F 50% 30.15 in 10.0 mi Calm Calm - N/A   Scattered Clouds
2:51 PM 82.4 °F 83.4 °F 62.6 °F 51% 30.14 in 10.0 mi SSW 8.1 mph - N/A   Scattered Clouds
3:51 PM 82.9 °F 82.8 °F 59.0 °F 44% 30.13 in 10.0 mi SSW 6.9 mph - N/A   Partly Cloudy
4:51 PM 82.9 °F 83.7 °F 62.1 °F 49% 30.12 in 10.0 mi South 3.5 mph - N/A   Scattered Clouds
5:51 PM 82.9 °F 84.0 °F 63.0 °F 51% 30.12 in 10.0 mi SSW 8.1 mph - N/A   Scattered Clouds
6:51 PM 81.0 °F 81.9 °F 62.1 °F 52% 30.12 in 10.0 mi South 10.4 mph - N/A   Mostly Cloudy
7:51 PM 79.0 °F - 62.1 °F 56% 30.12 in 10.0 mi South 8.1 mph - N/A   Scattered Clouds
8:51 PM 78.1 °F - 63.0 °F 60% 30.12 in 10.0 mi South 6.9 mph - N/A   Mostly Cloudy
9:51 PM 75.2 °F - 62.6 °F 65% 30.13 in 10.0 mi SE 3.5 mph - N/A   Scattered Clouds
10:51 PM 75.0 °F - 64.0 °F 69% 30.14 in 10.0 mi SSE 3.5 mph - N/A   Mostly Cloudy
11:51 PM 73.0 °F - 64.0 °F 73% 30.13 in 10.0 mi SSE 3.5 mph - N/A   Scattered Clouds